Weather History for Topeka, KS

Change the Weather History Date:

Wednesday, October 3, 2012

  Actual Average Record
Temperature  
Mean Temperature 60 °F 61 °F  
Max Temperature 80 °F 73 °F 96 °F (1954)
Min Temperature 40 °F 49 °F 28 °F (1888)
Degree Days  
Heating Degree Days 5 6  
Month to date heating degree days 8 17  
Since 1 July heating degree days 61 84  
Cooling Degree Days 0 2  
Month to date cooling degree days 2 6  
Year to date cooling degree days 1936 1399  
Growing Degree Days 10 (Base 50)    
Moisture  
Dew Point 42 °F    
Average Humidity 62    
Maximum Humidity 100    
Minimum Humidity 23    
Precipitation  
Precipitation 0.00 in 0.12 in 1.94 in (1942)
Month to date precipitation 0.70 0.37  
Year to date precipitation 20.28 30.60  
Snow  
Snow 0.00 in 0.00 in T in (1959)
Month to date snowfall 0.0 0.0  
Year to date snowfall 3.0 11.3  
Since 1 July snowfall 0.0 0.0  
Snow Depth 0.00 in    
Sea Level Pressure  
Sea Level Pressure 29.92 in    
Wind  
Wind Speed 6 mph (South)    
Max Wind Speed 20 mph    
Max Gust Speed 28 mph    
Visibility 7 miles    
Events Fog    
T = Trace of Precipitation, MM = Missing Value Source: NWS Daily Summary

Daily Weather History Graph

Daily Weather History Graph

Search for Another Location

Airport:

Trip Planner

Search our weather history database for the weather conditions in past years. The results will help you decide how hot, cold, wet, or windy it might be!

Date:

Astronomy

Oct. 03, 2012 Rise Set
Actual Time 7:20 AM CDT 7:01 PM CDT
Civil Twilight 6:54 AM CDT 7:27 PM CDT
Nautical Twilight 6:23 AM CDT 7:58 PM CDT
Astronomical Twilight 5:52 AM CDT 8:29 PM CDT
Moon 8:56 PM CDT (10/3) 10:43 AM CDT (10/3)
Length of Visible Light 12h 33m
Length of Day
11h 40m
Waning Gibbous, 88% of the Moon is Illuminated
Oct 3
Waning Gibbous
Oct 8
Last Quarter
Oct 15
New
Oct 21
First Quarter
Oct 29
Full

Hourly Weather History & Observations

Time (CDT) Temp. Dew Point Humidity Pressure Visibility Wind Dir Wind Speed Gust Speed Precip Events Conditions
12:53 AM 48.0 °F 45.0 °F 89% 29.91 in 5.0 mi Calm Calm - N/A   Clear
1:40 AM 44.6 °F 42.8 °F 93% 29.92 in 1.8 mi Calm Calm - N/A   Clear
1:53 AM 45.0 °F 44.1 °F 97% 29.92 in 1.8 mi Calm Calm - N/A   Clear
1:59 AM 44.6 °F 42.8 °F 93% 29.93 in 3.0 mi Calm Calm - N/A   Clear
2:28 AM 42.8 °F 42.8 °F 100% 29.93 in 1.8 mi Calm Calm - N/A   Clear
2:36 AM 42.8 °F 41.0 °F 93% 29.93 in 0.5 mi Calm Calm - N/A Fog Fog
2:42 AM 44.6 °F 42.8 °F 93% 29.93 in 1.0 mi Calm Calm - N/A   Clear
2:47 AM 44.6 °F 42.8 °F 93% 29.93 in 4.0 mi Calm Calm - N/A   Clear
2:53 AM 45.0 °F 43.0 °F 93% 29.93 in 10.0 mi Calm Calm - N/A   Clear
3:53 AM 45.0 °F 42.1 °F 90% 29.93 in 10.0 mi Calm Calm - N/A   Clear
3:56 AM 44.6 °F 42.8 °F 93% 29.93 in 2.0 mi Calm Calm - N/A   Partly Cloudy
3:58 AM 42.8 °F 42.8 °F 100% 29.93 in 1.0 mi Calm Calm - N/A   Mist
4:01 AM 42.8 °F 41.0 °F 93% 29.93 in 0.5 mi Calm Calm - N/A Fog Fog
4:20 AM 42.8 °F 41.0 °F 93% 29.93 in 1.0 mi Calm Calm - N/A   Mist
4:26 AM 42.8 °F 41.0 °F 93% 29.93 in 3.0 mi Calm Calm - N/A   Mostly Cloudy
4:53 AM 44.1 °F 39.9 °F 85% 29.93 in 10.0 mi Calm Calm - N/A   Partly Cloudy
5:53 AM 42.1 °F 39.9 °F 92% 29.95 in 10.0 mi Calm Calm - N/A   Clear
6:53 AM 41.0 °F 39.0 °F 93% 29.95 in 10.0 mi Calm Calm - N/A   Clear
7:53 AM 42.1 °F 41.0 °F 96% 29.96 in 10.0 mi Calm Calm - N/A   Clear
8:53 AM 50.0 °F 46.0 °F 86% 29.97 in 10.0 mi Calm Calm - N/A   Clear
9:53 AM 61.0 °F 48.9 °F 64% 29.96 in 10.0 mi Calm Calm - N/A   Clear
10:53 AM 71.1 °F 44.1 °F 38% 29.95 in 10.0 mi South 9.2 mph - N/A   Clear
11:53 AM 75.0 °F 41.0 °F 29% 29.93 in 10.0 mi SSW 11.5 mph 18.4 mph N/A   Clear
12:53 PM 77.0 °F 39.9 °F 26% 29.92 in 10.0 mi South 12.7 mph 20.7 mph N/A   Clear
1:53 PM 78.1 °F 37.0 °F 23% 29.89 in 10.0 mi South 11.5 mph 20.7 mph N/A   Clear
2:53 PM 79.0 °F 37.0 °F 22% 29.87 in 10.0 mi South 10.4 mph 21.9 mph N/A   Clear
3:53 PM 79.0 °F 37.9 °F 23% 29.86 in 10.0 mi South 12.7 mph - N/A   Clear
4:53 PM 79.0 °F 39.0 °F 24% 29.86 in 10.0 mi South 13.8 mph - N/A   Clear
5:53 PM 78.1 °F 41.0 °F 27% 29.86 in 10.0 mi South 13.8 mph 20.7 mph N/A   Clear
6:53 PM 73.0 °F 43.0 °F 34% 29.88 in 10.0 mi SSE 9.2 mph - N/A   Clear
7:53 PM 66.2 °F 44.6 °F 46% 29.89 in 10.0 mi SE 6.9 mph - N/A   Clear
8:53 PM 64.9 °F 46.0 °F 50% 29.90 in 10.0 mi SSE 6.9 mph - N/A   Clear
9:53 PM 66.9 °F 48.0 °F 51% 29.90 in 10.0 mi SSE 6.9 mph - N/A   Clear
10:53 PM 66.9 °F 48.9 °F 52% 29.92 in 10.0 mi SSE 4.6 mph - N/A   Clear
11:53 PM 64.9 °F 48.9 °F 56% 29.94 in 10.0 mi Calm Calm - N/A   Clear